Weather History for KHKA - November, 2012

Change the Weather History Date:

Saturday, November 3, 2012

  Actual Average Record
Temperature  
Mean Temperature 63 °F -  
Max Temperature 80 °F 64 °F 83 °F (1946)
Min Temperature 45 °F 46 °F 22 °F (1966)
Degree Days  
Heating Degree Days 2    
Growing Degree Days 13 (Base 50)    
Moisture  
Dew Point 45 °F    
Average Humidity 58    
Maximum Humidity 76    
Minimum Humidity 40    
Precipitation  
Precipitation 0.00 in - - ()
Sea Level Pressure  
Sea Level Pressure 30.00 in    
Wind  
Wind Speed 10 mph (North)    
Max Wind Speed 23 mph    
Max Gust Speed 31 mph    
Visibility 9 miles    
Events Rain    
Averages and records for this station are not official NWS values.
T = Trace of Precipitation, MM = Missing Value Source: NWS Daily Summary

Daily Weather History Graph

Daily Weather History Graph

Search for Another Location

Airport or City:

Trip Planner

Search our weather history database for the weather conditions in past years. The results will help you decide how hot, cold, wet, or windy it might be!

Date:

Astronomy

Nov. 03, 2012 Rise Set
Actual Time 7:24 AM CDT 6:01 PM CDT
Civil Twilight 6:57 AM CDT 6:27 PM CDT
Nautical Twilight 6:27 AM CDT 6:58 PM CDT
Astronomical Twilight 5:57 AM CDT 7:28 PM CDT
Moon 9:45 PM CDT (11/3) 11:25 AM CDT (11/3)
Length of Visible Light 11h 30m
Length of Day
10h 36m
Waning Gibbous, 80% of the Moon is Illuminated
Nov 3
Waning Gibbous
Nov 6
Last Quarter
Nov 13
New
Nov 20
First Quarter
Nov 28
Full

Hourly Weather History & Observations

Time (CDT) Temp. Windchill Dew Point Humidity Pressure Visibility Wind Dir Wind Speed Gust Speed Precip Events Conditions
12:53 AM 52.0 °F - 36.0 °F 54% 29.99 in 10.0 mi East 6.9 mph - N/A   Clear
1:53 AM 51.1 °F - 36.0 °F 56% 30.00 in 10.0 mi ESE 5.8 mph - N/A   Clear
2:53 AM 50.0 °F - 36.0 °F 59% 30.00 in 10.0 mi East 4.6 mph - N/A   Clear
3:53 AM 50.0 °F - 36.0 °F 59% 29.99 in 10.0 mi ESE 6.9 mph - N/A   Clear
4:53 AM 48.0 °F - 37.0 °F 66% 29.99 in 10.0 mi SE 4.6 mph - N/A   Clear
5:53 AM 48.9 °F - 37.9 °F 66% 29.99 in 10.0 mi SE 4.6 mph - N/A   Clear
6:53 AM 48.9 °F - 39.0 °F 69% 29.99 in 10.0 mi SE 3.5 mph - N/A   Clear
7:53 AM 51.1 °F - 42.1 °F 71% 30.00 in 10.0 mi South 4.6 mph - N/A   Clear
8:53 AM 59.0 °F - 50.0 °F 72% 30.00 in 10.0 mi South 8.1 mph - N/A   Clear
9:53 AM 68.0 °F - 57.0 °F 68% 29.99 in 10.0 mi SW 13.8 mph 20.7 mph N/A   Mostly Cloudy
10:53 AM 72.0 °F - 57.9 °F 61% 29.98 in 10.0 mi WSW 12.7 mph 20.7 mph N/A   Scattered Clouds
11:53 AM 77.0 °F - 59.0 °F 54% 29.97 in 9.0 mi West 16.1 mph 23.0 mph N/A   Clear
12:53 PM 80.1 °F - 59.0 °F 48% 29.95 in 7.0 mi West 16.1 mph 25.3 mph N/A   Clear
1:53 PM 78.1 °F - 57.9 °F 50% 29.94 in 8.0 mi West 17.3 mph 23.0 mph N/A   Partly Cloudy
2:53 PM 79.0 °F - 57.0 °F 47% 29.93 in 10.0 mi West 12.7 mph 18.4 mph N/A   Scattered Clouds
3:53 PM 78.1 °F - 54.0 °F 43% 29.93 in 10.0 mi WNW 13.8 mph 21.9 mph N/A   Mostly Cloudy
4:53 PM 75.9 °F - 50.0 °F 40% 29.94 in 10.0 mi NW 17.3 mph 24.2 mph N/A   Clear
5:12 PM 73.4 °F - 50.0 °F 44% 29.94 in 6.0 mi NW 17.3 mph 23.0 mph N/A   Haze
5:53 PM 66.9 °F - 48.9 °F 52% 29.96 in 10.0 mi North 13.8 mph - 0.00 in   Clear
6:53 PM 62.1 °F - 45.0 °F 53% 30.00 in 10.0 mi North 23.0 mph 29.9 mph N/A   Clear
7:08 PM 59.0 °F - 42.8 °F 55% 30.02 in 5.0 mi North 21.9 mph 31.1 mph 0.00 in Rain Light Rain
7:53 PM 55.0 °F - 39.9 °F 57% 30.05 in 10.0 mi NNE 19.6 mph 27.6 mph 0.00 in   Clear
8:53 PM 53.1 °F - 39.0 °F 59% 30.10 in 10.0 mi NNE 17.3 mph - N/A   Clear
9:53 PM 50.0 °F - 37.9 °F 63% 30.12 in 10.0 mi NNE 15.0 mph - N/A   Clear
10:53 PM 46.9 °F - 37.9 °F 71% 30.13 in 10.0 mi NNE 11.5 mph - N/A   Clear
11:53 PM 45.0 °F 40.6 °F 37.9 °F 76% 30.15 in 10.0 mi North 8.1 mph - N/A   Clear